User: anonymous   Login
Location: Aciu?a
(46.2833°N, 22.4500°E)
Time: 20:34:25
(UTC+00:00)
Language:

FALCON 9 DEB - Orbit

View from above orbital plane
View from above orbital plane
View from above satellite
View from above satellite

Ground track
Ground track

The orbit data is extracted from the following two-line orbital elements,

1 46086U 20055BM  22016.84219052  .00085167  00000-0  44209-3 0  9997
2 46086  53.0034 218.0829 0009375 217.1238 142.9134 15.80244911 87238
Epoch (UTC): 16 January 2022 20:12:45
Eccentricity: 0.0009375
inclination: 53.0034°
perigee height: 323 km
apogee height: 336 km
right ascension of ascending node: 218.0829°
argument of perigee: 217.1238°
revolutions per day: 15.80244911
mean anomaly at epoch: 142.9134°
orbit number at epoch: 8723

The dashed part of the orbit path shows where the satellite is in the earth's shadow,  

DLR